Flag for U.S.A. Weather past 2 weeks in Pueblo, Colorado, U.S.A.

Now
47 °F

Clear.


Feels Like: 47 °F
Forecast: 38 / 80 °F
Wind: No wind

Location: Pueblo Memorial Airport

Current Time: Mar 27, 2015 at 11:34:03 PM

Latest Report: Mar 27, 2015 at 10:53 PM


Visibility: 10 mi

Pressure: 30.06 "Hg

Humidity: 59%

Dew point: 33 °F

Location of PuebloLocation

Historic Weather in Pueblo — Graph

°F

Pueblo temperature yesterday

Maximum temperature yesterday: 60 °F (at 3:53 PM)
Minimum temperature yesterday: 26 °F (at 5:53 AM)
Average temperature yesterday: 43 °F

Past Weeks' High & Low Weather Summary

 TemperatureHumidityPressure
High84 °F (Mar 16, 3:53 PM)100% (Mar 20, 1:53 AM)30.46 "Hg (Mar 20, 1:53 AM)
Low26 °F (Mar 26, 5:53 AM)3% (Mar 15, 5:53 PM)29.69 "Hg (Mar 23, 5:53 PM)
Average49 °F51%30.07 "Hg
* Reported Mar 12 9:53 PM — Mar 27 9:53 PM, Pueblo, Weather by CustomWeather, © 2015

Note: Actual official high and low records may vary slightly from our data, if they occured in-between our weather recording intervals... More about our weather records

Advertising

Pueblo weather history for previous 24 hours

 ConditionsComfort  
Time TempWeatherWind HumidityBarometerVisibility
9:53 PM
Fri, Mar 27
49 °FClear.3 mph57%30.06 "Hg10 mi
8:53 PM53 °FClear.No wind45%30.04 "Hg10 mi
7:53 PM60 °FScattered clouds.6 mph35%30.03 "Hg10 mi
6:53 PM66 °FScattered clouds.8 mph26%30.01 "Hg10 mi
5:53 PM69 °FSunny.8 mph22%29.98 "Hg10 mi
4:53 PM71 °FSunny.14 mph21%29.97 "Hg10 mi
3:53 PM70 °FSunny.10 mph21%29.97 "Hg10 mi
2:53 PM71 °FSunny.6 mph19%29.98 "Hg10 mi
1:53 PM69 °FSunny.9 mph21%30.01 "Hg10 mi
12:53 PM67 °FSunny.9 mph24%30.05 "Hg10 mi
11:53 AM61 °FSunny.No wind29%30.11 "Hg10 mi
10:53 AM54 °FSunny.No wind38%30.13 "Hg10 mi
9:53 AM50 °FSunny.8 mph46%30.16 "Hg10 mi
8:53 AM46 °FSunny.6 mph58%30.18 "Hg10 mi
7:53 AM36 °FSunny.6 mph79%30.17 "Hg10 mi
6:53 AM32 °FClear.3 mph82%30.17 "Hg10 mi
5:53 AM35 °FClear.9 mph75%30.14 "Hg10 mi
4:53 AM34 °FClear.7 mph79%30.13 "Hg10 mi
3:53 AM34 °FClear.8 mph79%30.13 "Hg10 mi
2:53 AM35 °FClear.5 mph78%30.13 "Hg10 mi
1:53 AM38 °FClear.No wind73%30.12 "Hg10 mi
12:53 AM39 °FClear.7 mph73%30.13 "Hg10 mi
11:53 PM
Thu, Mar 26
37 °FClear.No wind76%30.14 "Hg10 mi
Weather by CustomWeather, © 2015

See weather overviewHow to use our weather pages